Regional Weather Roundup
Issued by NWS State College, PA

Home | Current Version | Previous Version | Text Only | Print | Product List | Glossary On
Versions: 1 2 3 4 5 6 7 8 9 10 11 12 13 14 15 16 17 18 19 20 21 22 23 24 25 26 27 28 29 30 31 32 33 34 35 36 37 38 39 40 41 42 43 44 45 46 47 48 49 50
000
ASUS41 KCTP 271610
RWRCTP

REGIONAL WEATHER ROUNDUP
NATIONAL WEATHER SERVICE STATE COLLEGE PA
1200 PM EDT THU JUL 27 2017

Note: "fair" indicates few or no clouds below 12,000 feet with no
significant weather and/or obstructions to visibility.

* = STATION THAT DOES NOT REPORT PRECIPITATION /E.G. RAIN...SNOW...ETC/
    THUNDER OR FOG.

PAZ002>004-007>009-013>016-020>023-029>032-271700-
WESTERN PENNSYLVANIA

CITY           SKY/WX    TMP DP  RH WIND       PRES   REMARKS
ERIE           CLOUDY    78  65  63 NW10      29.95F
MEADVILLE      MOSUNNY   75  65  70 VRB3      29.99F
FRANKLIN*        N/A    N/A N/A N/A MISG        N/A
NEW CASTLE     FAIR      79  63  57 CALM      29.97F
BEAVER COUNTY  SUNNY     79  54  41 W6        29.98F
BUTLER*        MOSUNNY   79  64  61 SW5       29.98F
PITTSBURGH INT PTSUNNY   79  64  60 VRB3      29.97F
PITTSBURGH     MOSUNNY   79  64  60 VRB5      29.97F
INDIANA*       SUNNY     77  68  73 W7        30.02F
LATROBE        PTSUNNY   75  68  78 W9        30.00F
WASHINGTON CO* CLOUDY    79  68  69 SW5       29.98F
$$

PAZ004>006-010>012-017>019-024>028-033>037-041-042-045-046-049>053-271700-
CENTRAL PENNSYLVANIA

CITY           SKY/WX    TMP DP  RH WIND       PRES   REMARKS
BRADFORD       MOSUNNY   74  63  68 CALM      30.00F
DUBOIS         CLOUDY    75  61  61 VRB7      29.99F
CLEARFIELD     CLOUDY    75  65  70 SW7       29.99F
JOHNSTOWN      CLOUDY    75  65  70 W8        30.02F
ALTOONA        CLOUDY    75  68  78 CALM      30.00F
STATE COLLEGE  PTSUNNY   73  68  83 CALM      29.99F
WILLIAMSPORT   CLOUDY    76  69  79 CALM      29.96F
SELINSGROVE    CLOUDY    74  69  85 S3        29.98F
FT INDIANTOWN  CLOUDY    70  69  99 NE3       29.99F
CAPITAL CITY   CLOUDY    76  68  76 E3        29.97F
HARRISBURG     CLOUDY    75  70  84 SE3       29.96F
YORK           CLOUDY    77  70  79 VRB5      29.98F
$$

PAZ038>040-043-044-047-048-054-055-060>062-067>071-271700-
EASTERN PENNSYLVANIA

CITY           SKY/WX    TMP DP  RH WIND       PRES   REMARKS
SCRANTON       CLOUDY    74  67  78 SW5       29.99F
MOUNT POCONO   CLOUDY    68  65  90 SW8       30.03F
ALLENTOWN      CLOUDY    73  66  78 SW6       30.00F
QUAKERTOWN*    CLOUDY    73  68  83 S5        30.01F
READING        CLOUDY    74  69  85 SE6       29.98F
LANCASTER      CLOUDY    75  70  84 SE3       29.98F
COATESVILLE    CLOUDY    73  70  88 CALM      30.01F
POTTSTOWN      CLOUDY    73  68  84 CALM      30.01F
BLUE BELL      CLOUDY    73  68  83 CALM      30.00F
DOYLESTOWN       N/A    N/A N/A N/A MISG      29.99F
WILLOW GROVE   NOT AVBL
NORTH PHILA    CLOUDY    79  69  71 SW8       30.00F
PHILADELPHIA   CLOUDY    78  68  71 S10       29.99F
$$



USA.gov is the U.S. government's official web portal to all federal, state and local government web resources and services.